STARLINK-32844, 62820

Orbit data source: Space-Track

STARLINK-32844, 62820 is a payload satellite owned by SpaceX/Seattle (US) in LEO that was launched on Fri, 24 Jan 2025 UTC via an FALCON 9 launch vehicle from the Air Force Western Test Range (AFWTR). Payloads include a variety of satellites, spacecraft, and rockets equipped with specific instruments for various scientific and technological missions. These include communications satellites like Starlink; space stations such as the ISS; scientific satellites like the Hubble; Earth observation satellites from companies like Planet Labs, Umbra, and HawkEye 360; GPS; miniature CubeSats for education and research; and military/defense satellites.

Loading next visibility...
STARLINK-32844 details
Identifier
62820, 2025-018Q
Orbit
LEO
Last TLE update9 hours ago
Origin
Flag of USSpaceX/Seattle (US)
ManufacturerSpaceX/Seattle
MissionOperational spacecraft
Bus & MotorSTARLINK V2M, Unknown motor
Mass730 kg wet, ~700 kg dry
Launch date (UTC)
2025-01-24 (3 weeks ago)
Launch vehicle
FALCON 9
Launch site
Air Force Western Test Range (AFWTR)
Object type
Payload
Rocket body
Debris
Shape & HBRUnknown
Radar Cross SectionLarge (>1 m²)

Expand to show TLE details & history

TLE from 9 hours ago
0 STARLINK-32844
1 62820U 25018Q   25047.16668981 -.01597555  00000-0 -25354-1 0  9996
2 62820  53.1589 312.4957 0000719  83.9594 280.6649 15.55653520  4823
Epoch: 2025-02-16T04:00Z
Definitive object data (Epoch: 2025-02-16T04:00:01.999Z)
Latitude3.63471°
Longitude108.79635°
Altitude400.674 km
Speed7.672 km/s
True Right ascension21h 00m 49s
True Declination3° 36' 43"
Sunlit
Object was in daylight at TLE epoch
Visualization TLE readout
Latitude-46.98992°
Longitude51.27973°
Altitude420.543 km
Speed7.658 km/s
Apparent Right ascension22h 58m 50s
Apparent Declination-78° 37' 16"
Sunlit
Object is in daylight
Visualization observer readout
Local Sidereal Time15:43:53
Azimuth165.281° S
Elevation-42.661°
Doppler factor1
Orbital elements
Apogee altitude401 km
Perigee altitude400.026 km
Semi-major axis6,778.65 km
Eccentricity0.0000719
Inclination53.1589°
RAAN312.4957°
Arg. of periapsis83.9594°
True anomaly280.6568°
Mean anomaly280.6649°
Eccentric anomaly280.66085°
Mean motion3.88891 °/min
BSTAR-0.025354
Orbital period92.57 mins
Loading maneuver chart data...
Loading historical data...
Loading historical data...
Loading historical data...
Loading historical data...
Loading historical data...
Loading historical data...
Loading historical data...

STARLINK-32844 Visibility forecast

Observer location: undefined°, undefined

Span
Click to sort rows by Start time (UTC) header in descending order
Start Az.
Max El. time (UTC)
Max El. Az.
Max El.
End time (UTC)
End Az.
5 mins2025-02-16 19:34:16.851Z186.901° SSW2025-02-16 19:36:16.851Z144.248° SSE23.601°2025-02-16 19:39:16.851Z74.001° E
4 mins2025-02-16 21:11:16.851Z278.443° WNW2025-02-16 21:13:16.851Z339.965° N26.382°2025-02-16 21:15:16.851Z26.511° NE
4 mins2025-02-17 03:40:16.851Z279.841° WNW2025-02-17 03:42:16.851Z207.862° SW29.896°2025-02-17 03:44:16.851Z162.466° S
|